Weather History for Athens, TX

Change the Weather History Date:

Wednesday, March 19, 2014

  Actual Average (KTYR) Record (KTYR)
Temperature  
Mean Temperature 54 °F 58 °F  
Max Temperature 62 °F 68 °F 87 °F (1982)
Min Temperature 44 °F 48 °F 26 °F (1965)
Degree Days  
Heating Degree Days 11 8  
Month to date heating degree days 187  
Since 1 July heating degree days 2079  
Cooling Degree Days 0 1  
Month to date cooling degree days 7  
Year to date cooling degree days 19  
Growing Degree Days 4 (Base 50)    
Moisture  
Dew Point 38 °F    
Average Humidity 54    
Maximum Humidity 81    
Minimum Humidity 34    
Precipitation  
Precipitation 0.00 in 0.13 in 1.44 in (2002)
Month to date precipitation 2.61  
Year to date precipitation 9.48  
Snow  
Snow 0.00 in - - ()
Month to date snowfall  
Since 1 July snowfall  
Snow Depth -    
Sea Level Pressure  
Sea Level Pressure 30.09 in    
Wind  
Wind Speed 5 mph (North)    
Max Wind Speed 16 mph    
Max Gust Speed 21 mph    
Visibility 10 miles    
Events      
T = Trace of Precipitation, MM = Missing Value Source: NWS Daily Summary

Daily Weather History Graph

Daily Weather History Graph

Search for Another Location

Airport:

Trip Planner

Search our weather history database for the weather conditions in past years. The results will help you decide how hot, cold, wet, or windy it might be!

Date:

Astronomy

Mar. 19, 2014 Rise Set
Actual Time 7:28 AM CDT 7:34 PM CDT
Civil Twilight 7:03 AM CDT 7:58 PM CDT
Nautical Twilight 6:35 AM CDT 8:27 PM CDT
Astronomical Twilight 6:06 AM CDT 8:55 PM CDT
Moon 10:41 PM CDT (3/19) 9:05 AM CDT (3/19)
Length of Visible Light 12h 54m
Length of Day
12h 05m
Waning Gibbous, 91% of the Moon is Illuminated
Mar 19
Waning Gibbous
Mar 23
Last Quarter
Mar 30
New
Apr 7
First Quarter
Apr 15
Full

Hourly Weather History & Observations

Time (CDT) Temp. Windchill Dew Point Humidity Pressure Visibility Wind Dir Wind Speed Gust Speed Precip Events Conditions
12:15 AM 62.6 °F - 55.4 °F 77% 29.86 in 10.0 mi SSW 3.5 mph - N/A   Overcast
12:35 AM 62.6 °F - 55.4 °F 77% 29.87 in 10.0 mi Calm Calm - N/A   Overcast
12:55 AM 62.6 °F - 55.4 °F 77% 29.89 in 10.0 mi Calm Calm - N/A   Overcast
1:15 AM 62.6 °F - 55.4 °F 77% 29.90 in 10.0 mi Calm Calm - N/A   Overcast
1:35 AM 62.6 °F - 55.4 °F 77% 29.91 in 10.0 mi Calm Calm - N/A   Overcast
1:55 AM 62.6 °F - 55.4 °F 77% 29.92 in 10.0 mi Calm Calm - N/A   Overcast
2:15 AM 62.6 °F - 55.4 °F 77% 29.92 in 10.0 mi Calm Calm - N/A   Overcast
2:35 AM 62.6 °F - 55.4 °F 77% 29.93 in 10.0 mi Calm Calm - N/A   Overcast
2:55 AM 62.6 °F - 55.4 °F 77% 29.94 in 10.0 mi Calm Calm - N/A   Overcast
3:15 AM 62.6 °F - 53.6 °F 72% 29.94 in 10.0 mi North 10.4 mph - N/A   Overcast
3:35 AM 60.8 °F - 35.6 °F 39% 29.94 in 7.0 mi North 8.1 mph - N/A   Overcast
3:55 AM 60.8 °F - 32.0 °F 34% 29.94 in 7.0 mi North 9.2 mph - N/A   Overcast
4:15 AM 59.0 °F - 32.0 °F 36% 29.96 in 10.0 mi North 9.2 mph 18.4 mph N/A   Overcast
4:35 AM 57.2 °F - 32.0 °F 38% 29.97 in 10.0 mi North 8.1 mph - N/A   Overcast
4:55 AM 55.4 °F - 32.0 °F 41% 29.98 in 10.0 mi North 6.9 mph - N/A   Overcast
5:15 AM 55.4 °F - 33.8 °F 44% 29.99 in 10.0 mi North 10.4 mph - N/A   Overcast
5:35 AM 53.6 °F - 33.8 °F 47% 30.00 in 10.0 mi North 8.1 mph - N/A   Overcast
5:55 AM 53.6 °F - 33.8 °F 47% 30.01 in 10.0 mi North 8.1 mph - N/A   Overcast
6:15 AM 51.8 °F - 32.0 °F 47% 30.03 in 10.0 mi NNW 10.4 mph - N/A   Overcast
6:35 AM 51.8 °F - 32.0 °F 47% 30.04 in 10.0 mi North 10.4 mph 16.1 mph N/A   Overcast
6:55 AM 50.0 °F - 32.0 °F 50% 30.05 in 10.0 mi NNW 9.2 mph - N/A   Overcast
7:15 AM 50.0 °F - 32.0 °F 50% 30.06 in 10.0 mi North 8.1 mph - N/A   Mostly Cloudy
7:35 AM 48.2 °F - 32.0 °F 54% 30.07 in 10.0 mi North 9.2 mph 16.1 mph N/A   Mostly Cloudy
7:55 AM 48.2 °F - 32.0 °F 54% 30.09 in 10.0 mi NNW 8.1 mph - N/A   Scattered Clouds
8:15 AM 48.2 °F - 32.0 °F 54% 30.10 in 10.0 mi North 9.2 mph - N/A   Scattered Clouds
8:35 AM 48.2 °F - 32.0 °F 54% 30.12 in 10.0 mi North 6.9 mph 19.6 mph N/A   Clear
8:55 AM 50.0 °F - 32.0 °F 50% 30.13 in 10.0 mi NNW 10.4 mph 20.7 mph N/A   Clear
9:15 AM 50.0 °F - 32.0 °F 50% 30.14 in 10.0 mi North 16.1 mph 20.7 mph N/A   Clear
9:35 AM 50.0 °F - 32.0 °F 50% 30.14 in 10.0 mi North 8.1 mph 16.1 mph N/A   Clear
9:55 AM 50.0 °F - 32.0 °F 50% 30.15 in 10.0 mi North 10.4 mph 20.7 mph N/A   Clear
10:15 AM 50.0 °F - 32.0 °F 50% 30.16 in 10.0 mi NNW 11.5 mph - N/A   Clear
10:35 AM 50.0 °F - 32.0 °F 50% 30.17 in 10.0 mi North 9.2 mph 16.1 mph N/A   Clear
10:55 AM 51.8 °F - 32.0 °F 47% 30.17 in 10.0 mi North 11.5 mph - N/A   Clear
11:15 AM 51.8 °F - 32.0 °F 47% 30.17 in 10.0 mi North 10.4 mph 17.3 mph N/A   Clear
11:35 AM 51.8 °F - 32.0 °F 47% 30.17 in 10.0 mi North 6.9 mph - N/A   Clear
11:55 AM 53.6 °F - 33.8 °F 47% 30.16 in 10.0 mi North 9.2 mph - N/A   Clear
12:15 PM 53.6 °F - 33.8 °F 47% 30.16 in 10.0 mi NNW 10.4 mph 16.1 mph N/A   Clear
12:35 PM 53.6 °F - 33.8 °F 47% 30.16 in 10.0 mi North 10.4 mph 20.7 mph N/A   Clear
12:55 PM 55.4 °F - 33.8 °F 44% 30.16 in 10.0 mi North 8.1 mph - N/A   Clear
1:15 PM 55.4 °F - 33.8 °F 44% 30.16 in 10.0 mi NNW 3.5 mph - N/A   Clear
1:35 PM 55.4 °F - 33.8 °F 44% 30.16 in 10.0 mi North 6.9 mph 10.4 mph N/A   Clear
1:55 PM 55.4 °F - 35.6 °F 47% 30.16 in 10.0 mi North 9.2 mph - N/A   Clear
2:15 PM 55.4 °F - 33.8 °F 44% 30.16 in 10.0 mi North 10.4 mph - N/A   Clear
2:35 PM 57.2 °F - 35.6 °F 44% 30.16 in 10.0 mi NNW 6.9 mph - N/A   Clear
2:55 PM 59.0 °F - 35.6 °F 42% 30.15 in 10.0 mi Calm Calm - N/A   Clear
3:15 PM 59.0 °F - 35.6 °F 42% 30.15 in 10.0 mi North 4.6 mph - N/A   Clear
3:35 PM 59.0 °F - 35.6 °F 42% 30.14 in 10.0 mi North 5.8 mph - N/A   Clear
3:55 PM 60.8 °F - 35.6 °F 39% 30.14 in 10.0 mi North 10.4 mph - N/A   Clear
4:15 PM 59.0 °F - 35.6 °F 42% 30.13 in 10.0 mi North 5.8 mph - N/A   Clear
4:35 PM 60.8 °F - 35.6 °F 39% 30.13 in 10.0 mi NNW 10.4 mph - N/A   Clear
4:55 PM 60.8 °F - 35.6 °F 39% 30.13 in 10.0 mi NNW 8.1 mph - N/A   Clear
5:15 PM 60.8 °F - 35.6 °F 39% 30.12 in 10.0 mi NNW 4.6 mph - N/A   Clear
5:35 PM 60.8 °F - 37.4 °F 42% 30.12 in 10.0 mi North 6.9 mph - N/A   Clear
5:55 PM 60.8 °F - 37.4 °F 42% 30.12 in 10.0 mi North 8.1 mph - N/A   Clear
6:15 PM 60.8 °F - 35.6 °F 39% 30.13 in 10.0 mi North 9.2 mph - N/A   Clear
6:35 PM 60.8 °F - 37.4 °F 42% 30.13 in 10.0 mi North 10.4 mph - N/A   Clear
6:55 PM 59.0 °F - 35.6 °F 42% 30.14 in 10.0 mi North 8.1 mph - N/A   Clear
7:15 PM 59.0 °F - 37.4 °F 45% 30.13 in 10.0 mi North 5.8 mph - N/A   Clear
7:35 PM 59.0 °F - 37.4 °F 45% 30.14 in 10.0 mi Calm Calm - N/A   Clear
7:55 PM 55.4 °F - 37.4 °F 51% 30.14 in 10.0 mi Calm Calm - N/A   Clear
8:15 PM 53.6 °F - 37.4 °F 54% 30.15 in 10.0 mi Calm Calm - N/A   Clear
8:40 PM 53.6 °F - 37.4 °F 54% 30.16 in 10.0 mi Calm Calm - N/A   Clear
8:55 PM 53.6 °F - 37.4 °F 54% 30.16 in 10.0 mi Calm Calm - N/A   Clear
9:15 PM 50.0 °F - 39.2 °F 66% 30.17 in 10.0 mi Calm Calm - N/A   Clear
9:35 PM 50.0 °F - 41.0 °F 71% 30.17 in 10.0 mi Calm Calm - N/A   Clear
9:55 PM 48.2 °F - 41.0 °F 76% 30.17 in 10.0 mi Calm Calm - N/A   Clear
10:15 PM 46.4 °F - 41.0 °F 81% 30.18 in 10.0 mi Calm Calm - N/A   Clear
10:35 PM 46.4 °F - 39.2 °F 76% 30.19 in 10.0 mi Calm Calm - N/A   Clear
10:55 PM 46.4 °F - 39.2 °F 76% 30.19 in 10.0 mi Calm Calm - N/A   Clear
11:15 PM 46.4 °F 45.2 °F 39.2 °F 76% 30.20 in 10.0 mi North 3.5 mph - N/A   Clear
11:35 PM 46.4 °F 45.2 °F 39.2 °F 76% 30.20 in 10.0 mi North 3.5 mph - N/A   Clear
11:55 PM 44.6 °F - 39.2 °F 81% 30.20 in 10.0 mi Calm Calm - N/A   Clear